Back to catalog

STARLINK-35981

AliveCommunicationsVLEO
NORAD 66598·PAYLOAD·🇺🇸 United States

Launched Nov 22, 2025 from Cape Canaveral Space Force Station

Loading…

Next Passes (next 24 hours)

TLE

FreshSource: CelesTrak SupGP

Epoch: Sep 14, 2026, 15:39 UTC

1 66598C 25270L   26257.65256944 -.00033055  00000+0 -11972-2 0  2579
2 66598  43.0022  68.6690 0001600 275.6645 288.4677 15.27596279    10

Track STARLINK-35981 in real time with AllMySat

Download on the App Store